N40AV KLAX-

Flight info

Callsign N40AV
Flight time N/A
Altitude VFR/025
Route
Aircraft R66/L-V/C

Departure

Time 2026-04-26 02:21
Airport Los Angeles International Airport (KLAX)

Arrival

Time N/A
Airport -
Time Latitude Longitude Altitude Speed Heading
2026-04-26 02:04 33.93382 -118.39912 119 ft 0 kts 23°
2026-04-26 02:09 33.93384 -118.39906 124 ft 2 kts 280°
2026-04-26 02:09 33.93328 -118.39955 190 ft 22 kts 222°
2026-04-26 02:09 33.93130 -118.40094 286 ft 45 kts 218°
2026-04-26 02:10 33.92833 -118.40362 346 ft 60 kts 222°
2026-04-26 02:10 33.92506 -118.40730 411 ft 65 kts 226°
2026-04-26 02:10 33.92173 -118.41129 471 ft 72 kts 225°
2026-04-26 02:10 33.91789 -118.41569 546 ft 84 kts 223°
2026-04-26 02:11 33.91298 -118.42024 528 ft 92 kts 217°
2026-04-26 02:11 33.90698 -118.42373 530 ft 102 kts 197°
2026-04-26 02:11 33.89974 -118.42376 527 ft 104 kts 174°
2026-04-26 02:11 33.89274 -118.42104 527 ft 106 kts 160°
2026-04-26 02:12 33.88599 -118.41777 530 ft 106 kts 166°
2026-04-26 02:12 33.87896 -118.41470 527 ft 108 kts 165°
2026-04-26 02:12 33.87190 -118.41167 527 ft 107 kts 166°
2026-04-26 02:12 33.86476 -118.40898 529 ft 108 kts 169°
2026-04-26 02:13 33.85753 -118.40682 535 ft 108 kts 174°
2026-04-26 02:13 33.85011 -118.40512 536 ft 107 kts 174°
2026-04-26 02:13 33.84282 -118.40356 535 ft 107 kts 175°
2026-04-26 02:13 33.83543 -118.40219 536 ft 106 kts 180°
2026-04-26 02:14 33.82814 -118.40145 541 ft 106 kts 186°
2026-04-26 02:14 33.82094 -118.40308 535 ft 103 kts 206°
2026-04-26 02:14 33.81460 -118.40712 536 ft 104 kts 218°
2026-04-26 02:14 33.80896 -118.41218 536 ft 99 kts 220°
2026-04-26 02:15 33.80374 -118.41755 539 ft 99 kts 224°
2026-04-26 02:15 33.79889 -118.42347 543 ft 103 kts 226°
2026-04-26 02:15 33.79305 -118.42879 537 ft 107 kts 209°
2026-04-26 02:15 33.78604 -118.43181 533 ft 107 kts 199°
2026-04-26 02:16 33.77876 -118.43335 538 ft 107 kts 182°
2026-04-26 02:16 33.77121 -118.43169 540 ft 112 kts 167°
2026-04-26 02:16 33.76366 -118.42887 536 ft 114 kts 167°
2026-04-26 02:16 33.75604 -118.42595 534 ft 113 kts 165°
2026-04-26 02:17 33.74870 -118.42240 538 ft 115 kts 158°
2026-04-26 02:17 33.74216 -118.41734 536 ft 111 kts 141°
2026-04-26 02:17 33.73672 -118.41034 538 ft 116 kts 128°
2026-04-26 02:17 33.73300 -118.40183 535 ft 115 kts 111°
2026-04-26 02:18 33.73086 -118.39248 542 ft 116 kts 110°
2026-04-26 02:18 33.72844 -118.38298 541 ft 122 kts 112°
2026-04-26 02:18 33.72407 -118.37492 536 ft 111 kts 158°
2026-04-26 02:18 33.71738 -118.37336 536 ft 94 kts 198°
2026-04-26 02:19 33.71085 -118.37545 537 ft 100 kts 202°
2026-04-26 02:19 33.70421 -118.37851 537 ft 103 kts 204°
2026-04-26 02:19 33.69767 -118.38182 534 ft 100 kts 207°
2026-04-26 02:19 33.69165 -118.38615 536 ft 99 kts 217°
2026-04-26 02:20 33.68577 -118.39050 534 ft 99 kts 213°
2026-04-26 02:20 33.67957 -118.39385 542 ft 102 kts 198°
2026-04-26 02:20 33.67220 -118.39435 533 ft 107 kts 186°
2026-04-26 02:20 33.66485 -118.39398 539 ft 105 kts 182°
2026-04-26 02:21 33.65768 -118.39356 618 ft 98 kts 185°
2026-04-26 02:21 33.65140 -118.39313 839 ft 86 kts 186°
2026-04-26 02:21 33.64524 -118.39295 1007 ft 93 kts 188°
2026-04-26 02:21 33.63835 -118.39320 1147 ft 106 kts 190°
2026-04-26 02:22 33.63050 -118.39336 1262 ft 118 kts 189°
2026-04-26 02:22 33.62219 -118.39349 1396 ft 120 kts 188°
2026-04-26 02:22 33.61383 -118.39429 1529 ft 118 kts 194°
2026-04-26 02:22 33.60601 -118.39528 1712 ft 110 kts 194°
2026-04-26 02:23 33.59860 -118.39647 1909 ft 105 kts 195°
2026-04-26 02:23 33.59146 -118.39760 2082 ft 108 kts 192°
2026-04-26 02:23 33.58617 -118.39778 2058 ft 118 kts 189°
2026-04-26 02:23 33.57481 -118.39725 2047 ft 124 kts 181°
2026-04-26 02:24 33.56627 -118.39618 2046 ft 123 kts 180°
2026-04-26 02:24 33.56061 -118.39534 2043 ft 120 kts 179°
2026-04-26 02:24 33.55253 -118.39471 2044 ft 114 kts 189°
2026-04-26 02:24 33.54507 -118.39699 2053 ft 107 kts 207°
2026-04-26 02:25 33.53846 -118.40094 2050 ft 107 kts 214°
2026-04-26 02:25 33.53199 -118.40544 2055 ft 105 kts 216°
2026-04-26 02:25 33.52585 -118.40989 2047 ft 104 kts 216°
2026-04-26 02:25 33.51939 -118.41405 2047 ft 105 kts 211°
2026-04-26 02:26 33.51308 -118.41720 2223 ft 93 kts 210°
2026-04-26 02:26 33.50742 -118.41973 2450 ft 81 kts 210°
2026-04-26 02:26 33.50223 -118.42188 2570 ft 85 kts 210°
2026-04-26 02:26 33.49618 -118.42430 2551 ft 96 kts 207°
2026-04-26 02:27 33.48968 -118.42675 2564 ft 99 kts 203°
2026-04-26 02:27 33.48278 -118.42885 2563 ft 104 kts 200°
2026-04-26 02:27 33.47560 -118.43054 2550 ft 108 kts 196°
2026-04-26 02:27 33.46808 -118.43184 2532 ft 111 kts 193°
2026-04-26 02:28 33.46048 -118.43345 2533 ft 110 kts 198°
2026-04-26 02:28 33.45308 -118.43527 2562 ft 108 kts 197°
2026-04-26 02:28 33.44577 -118.43679 2651 ft 104 kts 196°
2026-04-26 02:28 33.43869 -118.43798 2721 ft 102 kts 194°
2026-04-26 02:29 33.43161 -118.43879 2765 ft 104 kts 191°
2026-04-26 02:29 33.42440 -118.43928 2823 ft 103 kts 190°
2026-04-26 02:29 33.41720 -118.43978 2859 ft 104 kts 191°
2026-04-26 02:29 33.41003 -118.44030 2919 ft 104 kts 194°
2026-04-26 02:30 33.40317 -118.44317 2926 ft 106 kts 216°
2026-04-26 02:30 33.39802 -118.44934 2938 ft 104 kts 241°
2026-04-26 02:30 33.39458 -118.45701 2940 ft 107 kts 239°
2026-04-26 02:30 33.38900 -118.46296 2926 ft 112 kts 206°
2026-04-26 02:31 33.38107 -118.46315 2942 ft 120 kts 165°
2026-04-26 02:31 33.37506 -118.45655 2972 ft 123 kts 103°
2026-04-26 02:31 33.37597 -118.44674 3012 ft 120 kts 56°
2026-04-26 02:31 33.38099 -118.43876 2994 ft 122 kts 37°
2026-04-26 02:32 33.38733 -118.43209 2993 ft 118 kts 29°
2026-04-26 02:32 33.39323 -118.42696 3010 ft 85 kts 22°
2026-04-26 02:32 33.39648 -118.42351 2815 ft 43 kts 22°
2026-04-26 02:32 33.39804 -118.42116 2465 ft 37 kts 16°
2026-04-26 02:33 33.40037 -118.41908 2176 ft 46 kts 20°
2026-04-26 02:33 33.40241 -118.41661 1908 ft 32 kts 21°
2026-04-26 02:33 33.40344 -118.41475 1675 ft 23 kts 356°
2026-04-26 02:33 33.40427 -118.41419 1669 ft 6 kts 271°
2026-04-26 02:34 33.40415 -118.41480 1673 ft 9 kts 242°
2026-04-26 02:34 33.40384 -118.41523 1628 ft 4 kts 244°
2026-04-26 02:34 33.40374 -118.41532 1620 ft 2 kts 211°
2026-04-26 02:34 33.40359 -118.41528 1605 ft 1 kts 158°
2026-04-26 02:35 33.40360 -118.41522 1598 ft 0 kts 146°
2026-04-26 02:35 33.40358 -118.41522 1588 ft 0 kts 137°
2026-04-26 02:36 33.40358 -118.41523 1588 ft 1 kts 129°
2026-04-26 02:36 33.40346 -118.41520 1600 ft 6 kts 203°
2026-04-26 02:36 33.40287 -118.41523 1611 ft 13 kts 172°
2026-04-26 02:36 33.40248 -118.41489 1599 ft 1 kts 199°
2026-04-26 02:37 33.40221 -118.41515 1643 ft 17 kts 211°
2026-04-26 02:37 33.40084 -118.41704 1756 ft 42 kts 237°
2026-04-26 02:37 33.39901 -118.42067 1829 ft 58 kts 243°
2026-04-26 02:37 33.40072 -118.42479 1957 ft 80 kts 348°
2026-04-26 02:38 33.40350 -118.41924 2093 ft 81 kts 100°
2026-04-26 02:38 33.40308 -118.41425 1999 ft 52 kts 78°
2026-04-26 02:38 33.40436 -118.41046 1702 ft 48 kts 33°
2026-04-26 02:38 33.40669 -118.40869 1693 ft 29 kts 312°
2026-04-26 02:39 33.40779 -118.40969 1649 ft 25 kts 275°
2026-04-26 02:39 33.40706 -118.41240 1623 ft 41 kts 240°
2026-04-26 02:39 33.40568 -118.41465 1578 ft 20 kts 243°
2026-04-26 02:39 33.40547 -118.41496 1570 ft 0 kts 250°
2026-04-26 02:40 33.40540 -118.41512 1578 ft 7 kts 246°
2026-04-26 02:40 33.40500 -118.41585 1586 ft 11 kts 248°
2026-04-26 02:40 33.40449 -118.41665 1593 ft 12 kts 243°
2026-04-26 02:40 33.40408 -118.41710 1594 ft 4 kts 164°
2026-04-26 02:41 33.40399 -118.41680 1595 ft 7 kts 143°
2026-04-26 02:41 33.40404 -118.41581 1589 ft 14 kts 110°
2026-04-26 02:41 33.40392 -118.41527 1621 ft 3 kts 178°
2026-04-26 02:41 33.40383 -118.41533 1619 ft 2 kts 169°
2026-04-26 02:42 33.40362 -118.41515 1597 ft 2 kts 147°
2026-04-26 02:42 33.40367 -118.41525 1583 ft 0 kts 151°